Location: Boiro
(42.6475°N, 8.8834°W)
Time: 18:47:26
(UTC+01:00)

Transit 2A Rocket - Pass Details

Date: 03 December 2021
Orbit: 584 x 918 km, 66.7° (Epoch: 19 January)

Event Time Altitude Azimuth Distance (km) Brightness Sun altitude
Rises 09:42:35 0° 219° (SW) 3,292 8.3 7.4°
Reaches altitude 10° 09:44:57 10° 223° (SW) 2,413 7.6 7.7°
Maximum altitude 09:50:31 63° 304° (NW) 965 5.4 8.5°
Drops below altitude 10° 09:56:32 10° 26° (NNE) 2,591 7.6 9.3°
Sets 09:59:09 0° 29° (NNE) 3,554 8.3 9.7°
